Home   Weather   Mistelbach   Past weeks

Flag for Austria Past Weather in Mistelbach, Lower Austria, Austria — Yesterday and Last 2 Weeks

Now
51 °F

Overcast.


Feels Like: 51 °F
Forecast: 44 / 70 °F
Wind: 2 mph from East

Location: Wien / Hohe Warte

Current Time: Sep 26, 2016 at 7:34:35 AM

Latest Report: Sep 26, 2016 at 7:00 AM


Visibility: 13 mi

Pressure: 30.18 "Hg

Humidity: 88%

Dew Point: 47 °F

Location of MistelbachLocation

Past Weather in Mistelbach — Graph

°F

Mistelbach Temperature Yesterday

Maximum temperature yesterday: 72 °F (at 3:00 PM)
Minimum temperature yesterday: 49 °F (at 6:00 AM)
Average temperature yesterday: 60 °F

High & Low Weather Summary for the Past Weeks

 TemperatureHumidityPressure
High86 °F (Sep 11, 4:00 PM)95% (Sep 16, 6:00 AM)30.34 "Hg (Sep 16, 6:00 AM)
Low44 °F (Sep 23, 7:00 AM)35% (Sep 13, 5:00 PM)29.75 "Hg (Sep 17, 6:00 AM)
Average65 °F68%30.04 "Hg
* Reported Sep 11 6:00 AM — Sep 26 6:00 AM, Mistelbach, Weather by CustomWeather, © 2016

Note: Actual official high and low records may vary slightly from our data, if they occured in-between our weather recording intervals... More about our weather records

Advertising

Mistelbach Weather History for the Previous 24 Hours

Scroll right to see more
 ConditionsComfort  
Time TempWeatherWind HumidityBarometerVisibility
6:00 AM
Mon, Sep 26
52 °FPassing clouds.2 mph86%30.16 "Hg16 mi
5:00 AM53 °FCool.1 mph84%30.16 "HgN/A
4:00 AM53 °FCool.1 mph81%30.16 "HgN/A
3:00 AM52 °FCool.1 mph81%30.17 "HgN/A
2:00 AM52 °FPassing clouds.1 mph78%30.17 "Hg9 mi
1:00 AM54 °FCool.1 mph72%30.16 "HgN/A
12:00 AM56 °FCool.2 mph63%30.16 "HgN/A
11:00 PM
Sun, Sep 25
57 °FCool.2 mph66%30.15 "HgN/A
10:00 PM59 °FClear.3 mph63%30.14 "Hg22 mi
9:00 PM61 °FClear.3 mph62%30.14 "Hg22 mi
8:00 PM61 °FPassing clouds.3 mph67%30.12 "Hg22 mi
7:00 PM64 °FPassing clouds.1 mph59%30.10 "Hg22 mi
6:00 PM68 °FOvercast.1 mph49%30.09 "Hg19 mi
5:00 PM71 °FPartly sunny.1 mph45%30.09 "Hg25 mi
4:00 PM72 °FPartly sunny.2 mph44%30.11 "Hg19 mi
3:00 PM72 °FPassing clouds.3 mph45%30.11 "Hg19 mi
2:00 PM71 °FPassing clouds.2 mph49%30.14 "Hg19 mi
1:00 PM69 °FPassing clouds.2 mph54%30.16 "Hg16 mi
12:00 PM66 °FPassing clouds.3 mph58%30.18 "Hg10 mi
11:00 AM63 °FPartly sunny.1 mph60%30.20 "Hg9 mi
10:00 AM58 °FScattered clouds.1 mph71%30.21 "Hg8 mi
9:00 AM55 °FScattered clouds.1 mph79%30.22 "Hg8 mi
8:00 AM51 °FScattered clouds.1 mph86%30.23 "Hg6 mi
7:00 AM49 °FPassing clouds.1 mph91%30.24 "Hg7 mi
Weather by CustomWeather, © 2016

See weather overviewHow to use our weather pages